DW9614 Weather Reports


Display with metric or nautical units.
time (UTC)temp
F
wind
direction
speed
MPH
gust
MPH
rain 1hr
in
rain 24hr
in
rain mn
in
humidity
%
barometer
mb
20260508211514 60 174 5.0 8.0 0.00 0.01 0.01 78 1007.9
20260508210013 60 215 4.0 7.0 0.00 0.02 0.01 77 1007.9
20260508204521 59 175 4.0 7.0 0.00 0.02 0.01 79 1007.8
20260508203011 59 189 3.0 8.0 0.00 0.02 0.01 78 1007.8
20260508201506 59 205 3.0 6.0 0.00 0.02 0.01 78 1008.5
20260508200008 60 201 3.0 6.0 0.00 0.02 0.01 76 1008.9
20260508194506 60 221 4.0 6.0 0.01 0.02 0.01 72 1008.8
20260508193003 60 315 3.0 8.0 0.01 0.02 0.01 73 1009.1
20260508191505 61 292 0.0 1.0 0.01 0.02 0.01 75 1009.3
20260508190002 61 300 2.0 5.0 0.01 0.02 0.01 73 1009.3
20260508184609 61 288 2.0 7.0 0.00 0.01 0.00 72 1009.5
20260508183100 63 221 2.0 6.0 0.00 0.01 0.00 67 1009.4
20260508181605 64 271 2.0 5.0 0.00 0.01 0.00 63 1009.3
20260508180059 63 232 2.0 8.0 0.00 0.01 0.00 65 1009.4
20260508174559 64 248 2.0 10.0 0.00 0.01 0.00 60 1009.7
20260508173055 64 227 5.0 11.0 0.00 0.01 0.00 60 1009.9
20260508171551 66 222 3.0 9.0 0.00 0.01 0.00 58 1010.0
20260508170049 65 243 6.0 13.0 0.00 0.01 0.00 58 1010.3
20260508164548 64 209 2.0 8.0 0.00 0.01 0.00 66 1010.3
20260508163049 64 218 3.0 9.0 0.00 0.01 0.00 64 1010.3
20260508161546 64 208 5.0 14.0 0.00 0.01 0.00 63 1010.3
20260508160145 64 195 7.0 17.0 0.00 0.01 0.00 62 1010.4
20260508153046 63 212 9.0 14.0 0.00 0.01 0.00 63 1010.6
20260508151546 64 208 6.0 11.0 0.00 0.01 0.00 63 1010.7
20260508150040 64 241 6.0 13.0 0.00 0.01 0.00 63 1010.7
20260508144535 62 252 7.0 15.0 0.00 0.01 0.00 65 1010.9
20260508143042 61 202 9.0 16.0 0.00 0.01 0.00 67 1011.0
20260508141541 60 195 5.0 12.0 0.00 0.01 0.00 68 1011.0
20260508140028 58 207 6.0 13.0 0.00 0.01 0.00 71 1011.0
20260508134530 55 218 5.0 12.0 0.00 0.01 0.00 73 1011.1
20260508133021 55 211 6.0 11.0 0.00 0.01 0.00 74 1011.1
20260508131521 53 211 4.0 9.0 0.00 0.01 0.00 76 1011.3
20260508130022 52 207 5.0 8.0 0.00 0.01 0.00 77 1011.4
20260508124520 52 189 4.0 7.0 0.00 0.01 0.00 77 1011.4
20260508123020 51 194 2.0 6.0 0.00 0.01 0.00 77 1011.6
20260508121547 51 235 0.0 5.0 0.00 0.01 0.00 78 1011.7
20260508120018 51 253 2.0 4.0 0.00 0.01 0.00 78 1011.8
20260508114517 50 262 0.0 0.0 0.00 0.01 0.00 79 1011.8
20260508113016 50 262 0.0 0.0 0.00 0.01 0.00 79 1011.7
20260508111515 50 262 0.0 2.0 0.00 0.01 0.00 78 1011.5
20260508110015 50 263 2.0 5.0 0.00 0.01 0.00 77 1011.4
20260508104514 50 298 0.0 4.0 0.00 0.01 0.00 77 1011.4
20260508103016 50 307 0.0 4.0 0.00 0.01 0.00 76 1011.5
20260508101514 49 218 5.0 8.0 0.00 0.01 0.00 77 1011.2
20260508100013 50 199 5.0 10.0 0.00 0.01 0.00 76 1011.2
20260508094511 49 217 4.0 9.0 0.00 0.01 0.00 77 1011.2
20260508093013 50 211 4.0 9.0 0.00 0.01 0.00 76 1011.2
20260508091512 49 205 4.0 8.0 0.00 0.01 0.00 77 1011.3
20260508090010 50 219 5.0 9.0 0.00 0.01 0.00 76 1011.4
20260508084503 50 204 5.0 9.0 0.00 0.01 0.00 75 1011.4
20260508081558 51 201 5.0 8.0 0.00 0.01 0.00 73 1011.4
20260508080101 51 211 4.0 10.0 0.00 0.01 0.00 73 1011.4
20260508074556 51 206 5.0 9.0 0.00 0.01 0.00 73 1011.7
20260508073059 52 200 5.0 11.0 0.00 0.01 0.00 72 1011.5
20260508071555 52 209 6.0 12.0 0.00 0.01 0.00 71 1011.8
20260508070050 52 197 8.0 13.0 0.00 0.01 0.00 71 1011.9
20260508064604 53 222 7.0 12.0 0.00 0.01 0.00 70 1012.2
20260508063047 53 202 8.0 12.0 0.00 0.01 0.00 70 1012.2
20260508061544 54 219 5.0 12.0 0.00 0.01 0.00 70 1012.3
20260508060040 54 197 7.0 13.0 0.00 0.01 0.00 71 1012.5
20260508054540 54 204 6.0 10.0 0.00 0.01 0.00 73 1012.5
20260508053038 55 183 4.0 10.0 0.00 0.01 0.00 72 1012.5
20260508051537 55 198 6.0 11.0 0.00 0.01 0.00 71 1012.6
20260508050039 54 222 4.0 8.0 0.00 0.01 0.01 74 1012.5
20260508044532 54 210 4.0 7.0 0.00 0.01 0.01 74 1012.4
20260508043035 54 200 4.0 7.0 0.00 0.01 0.01 75 1012.4
20260508041531 54 217 5.0 9.0 0.00 0.01 0.01 76 1012.6
20260508040034 54 185 4.0 11.0 0.00 0.01 0.01 77 1012.4
20260508034530 53 212 6.0 16.0 0.00 0.01 0.01 79 1012.6
20260508033029 53 207 5.0 9.0 0.00 0.01 0.01 78 1013.0
20260508031530 53 217 4.0 10.0 0.00 0.01 0.01 79 1012.9
20260508030029 53 199 5.0 9.0 0.00 0.01 0.01 80 1012.7
20260508024530 52 197 3.0 6.0 0.00 0.01 0.01 80 1012.6
20260508023034 52 200 3.0 7.0 0.00 0.01 0.01 79 1012.5
20260508021527 52 199 3.0 4.0 0.00 0.01 0.01 79 1012.5
20260508020026 52 202 2.0 5.0 0.00 0.01 0.01 79 1012.4
20260508014532 52 199 3.0 6.0 0.00 0.01 0.01 80 1012.3
20260508013026 53 211 2.0 6.0 0.00 0.01 0.01 81 1012.2
20260508011627 52 205 3.0 5.0 0.00 0.01 0.01 79 1012.2
20260508010030 53 213 2.0 5.0 0.00 0.01 0.01 78 1012.2
20260508004523 53 213 2.0 6.0 0.00 0.01 0.01 79 1012.3
20260508003032 54 200 4.0 9.0 0.00 0.01 0.01 77 1012.2
20260508001521 55 212 8.0 13.0 0.00 0.01 0.01 73 1012.2
20260508000021 58 286 4.0 7.0 0.00 0.01 0.01 62 1013.1
20260507234522 58 195 3.0 8.0 0.00 0.01 0.01 60 1012.2
20260507233021 59 209 3.0 7.0 0.00 0.01 0.01 59 1012.2
20260507231520 59 219 3.0 7.0 0.00 0.01 0.01 57 1012.3
20260507230020 59 227 5.0 12.0 0.00 0.01 0.01 56 1012.4
20260507224519 59 244 4.0 13.0 0.00 0.01 0.01 56 1012.6
20260507223019 60 192 3.0 7.0 0.00 0.01 0.01 59 1012.6
20260507221518 60 224 3.0 10.0 0.00 0.01 0.01 57 1013.0
20260507220017 61 232 3.0 6.0 0.01 0.01 0.01 58 1012.9
20260507214517 60 297 0.0 4.0 0.01 0.01 0.01 59 1012.6
20260507213023 59 321 0.0 0.0 0.01 0.01 0.01 68 1012.6